Regional Weather Roundup
Issued by NWS Lake Charles, LA

Home | Current Version | Previous Version | Text Only | Print | Product List | Glossary On
Versions: 1 2 3 4 5 6 7 8 9 10 11 12 13 14 15 16 17 18 19 20 21 22 23 24 25 26 27 28 29 30 31 32 33 34 35 36 37 38 39 40 41 42 43 44 45 46 47 48 49 50
000
ASUS44 KLCH 301310
RWRLCH
REGIONAL WEATHER ROUNDUP
NATIONAL WEATHER SERVICE LAKE CHARLES LA
800 AM CDT SUN APR 30 2017

Note: "fair" indicates few or no clouds below 12,000 feet with no
significant weather and/or obstructions to visibility.


ACROSS SOUTHEAST TEXAS

CITY           SKY/WX    TMP DP  RH WIND       PRES   REMARKS
BEAUMONT       CLOUDY    61  52  72 NW12      29.83R
BEAUMONT CITY  CLOUDY    61  54  77 MISG      29.85R
ORANGE         CLOUDY    60  55  82 N6        29.85R
JASPER           N/A     60  56  86 CALM      29.86R
$$

ACROSS CENTRAL LOUISIANA

CITY           SKY/WX    TMP DP  RH WIND       PRES   REMARKS
LEESVILLE      CLOUDY    60  56  88 NW7       29.81R
FULLERTON      CLOUDY    61  58  90 CALM      29.80R
ALEXANDRIA INT CLOUDY    62  58  86 NW13      29.78F
ESLER FIELD    CLOUDY    62  61  96 W5        29.77F
DERIDDER       CLOUDY    60  58  96 CALM      29.85R
OAKDALE        CLOUDY    62  58  89 NW5       29.83R
OPELOUSAS      CLOUDY    62  59  91 N8        29.78F
$$

ACROSS SOUTHWEST AND SOUTH CENTRAL LOUISIANA

CITY           SKY/WX    TMP DP  RH WIND       PRES   REMARKS
SULPHUR        CLOUDY    61  58  87 N5        29.86R
LAKE CHARLES   LGT RAIN  62  57  83 CALM      29.85R
CHENNAULT INT  CLOUDY    57  57 100 NW7       29.84R
CAMERON PHI    CLOUDY    63  57  82 N14G22    29.81R
DEQUINCY       CLOUDY    59  56  91 CALM      29.84R
JENNINGS       CLOUDY    64  58  82 NW14G20   29.81F
LAFAYETTE      TSTM      66  62  87 N13       29.78F
NEW IBERIA     TSTM      63  61  93 NW16      29.81R FOG
ABBEVILLE      TSTM      61  61 100 N9        29.81R
PATTERSON      CLOUDY    79  74  84 S22G37    29.73F
SALT POINT       N/A     79  74  84 S10G22    29.71S
$$

SELECTED SITES ACROSS THE REGION

CITY           SKY/WX    TMP DP  RH WIND       PRES   REMARKS
HOUSTON BUSH   CLOUDY    62  48  60 NW14      29.87R
HOUSTON HOBBY  CLOUDY    64  47  53 NW10      29.85R
GALVESTON      CLOUDY    68  49  50 N18       29.83F
COLLEGE STAT   CLOUDY    56  53  90 NW15      29.89R
CONROE         CLOUDY    59  50  72 NW6       29.87R
HUNTSVILLE     CLOUDY    57  49  74 W5        29.87R
LUFKIN         CLOUDY    57  52  83 CALM      29.81R
SHREVEPORT     CLOUDY    57  54  89 W7        29.79R
MONROE         CLOUDY    65  62  90 NW6       29.77S
NATCHEZ MS     TSTM      70  69  97 S12       29.79R
BATON ROUGE    TSTM      71  69  93 NW14G43   29.78R VSB 1
N.O. INTL ARPT CLOUDY    79  73  82 S18G29    29.82R
SLIDELL        CLOUDY    79  73  82 S14G29    29.84R
$$

MARINE REPORTS

STATION/POSITION TIME  SKY/WX   TEMP    WIND        PRES    VSBY
                                AIR SEA DIR/SP/G
                 (UTC)          (F)     (DEG/KT/KT) (MB)    (MI)
BUOY 30 S HIGH I 1150            68 76  320/ 23/ 29 1008.3
WVE H/P(F/S)=  6/ 9

SEA RIM ST PARK  1200            61     350/ 11/ 14 1009.8R
PORT ARTHUR      1248            62 76  340/  5/ 10 1010.6R
SABINE PASS N    1248            65 78  350/ 11/ 17 1012.1R
TEXAS POINT      NOT AVBL
CALCASIEU PASS   1248            64 76  360/ 16/ 19   N/A
LK CHARLES BEACH 1248            62 74              1010.9R
MARSH ISLAND     NOT AVBL
FRESH WATER LOCK 1248            61 78  320/ 16/ 19 1008.8R
AMERADA PASS     1248            79 75  150/ 13/ 24 1006.7F
$$



USA.gov is the U.S. government's official web portal to all federal, state and local government web resources and services.